Location: Aigremont
(47.7188°N, 3.8925°E)
Time: 19:22:47
(UTC+00:00)

Cosmos 1633 - Pass Details

Date: 18 February 2020
Orbit: 464 x 482 km, 82.5° (Epoch: 05 April)

Event Time Altitude Azimuth Distance (km) Brightness Sun altitude
Rises 05:00:24 0° 353° (N) 2,559 6.2 -18.5°
Reaches altitude 10° 05:02:31 10° 357° (N) 1,675 5.3 -18.1°
Maximum altitude 05:06:10 63° 79° (E) 546 3.0 -17.5°
Drops below altitude 10° 05:09:46 10° 161° (SSE) 1,660 5.5 -16.9°
Sets 05:11:52 0° 165° (SSE) 2,534 6.4 -16.5°
